Voltar ao catálogo

STARLINK-11236

AtivoComunicaçõesVLEO
NORAD 61062·PAYLOAD·🇺🇸 United States

Lançado Sep 13, 2024 de Vandenberg Space Force Base

Loading…

Próximas Passagens (próximas 24 horas)

TLE

AtualizadoSource: CelesTrak SupGP

Época: Sep 14, 2026, 20:58 UTC

1 61062C 24164N   26257.87409722 -.00046960  00000+0 -38681-3 0  2575
2 61062  53.1571  98.7287 0001167  91.1960 190.4968 15.69733661    16

Acompanhe STARLINK-11236 em tempo real com AllMySat

Download on the App Store